[[{"header":{"parameterUnit":"m.s-1","parameterCategory":1,"la1":30.2991,"la2":30.254,"lo1":-89.0895,"lo2":-89.0444,"dy":0.0017,"dx":0.0017,"nx":28,"ny":28,"refTime":"2024-05-22T09:00:00:Z","depth":0,"parameterNumber":2,"parameterNumberName":"U-component_of_WINDS"},"data":[0,0,0,0,0,0,0,0,0,0,0,0,0,0,0,0,0,0,0,0,0,0,0,0,0,0,0,0,0,0,0,0,0,0,0,0,0,0,0,0,0,0,0,0,0,0,0,0,0,0,0,0,0,0,0,0,0,0,-0.0975,-0.0975,0,-0.0985,-0.0985,-0.0986,-0.0992,-0.0992,-0.0992,-0.0992,-0.1004,-0.1004,-0.1005,0,0,0,0,0,0,0,0,0,0,0,0,0,-0.0962,-0.0963,-0.0975,-0.0975,-0.0975,-0.0985,-0.0985,-0.0986,-0.0992,-0.0992,-0.0992,-0.0992,-0.1004,-0.1004,-0.1005,0,0,0,0,0,0,0,0,0,0,0,0,0,-0.097,-0.0963,-0.0975,-0.098,-0.098,-0.0985,-0.0985,-0.0986,-0.0992,-0.0992,-0.0992,-0.0992,-0.1004,-0.1004,-0.1005,-0.1006,0,0,-0.1006,-0.1006,0,0,0,0,0,0,0,0,-0.0969,-0.097,-0.0979,-0.0979,-0.098,-0.0988,-0.0985,-0.0993,-0.0992,-0.0988,-0.0992,-0.0992,-0.0999,-0.0999,-0.1001,-0.1007,-0.1007,-0.1006,-0.1006,-0.1006,-0.1006,0,0,0,0,0,0,0,-0.0969,-0.097,-0.0979,-0.0979,-0.098,-0.0982,-0.0983,-0.0987,-0.0993,-0.0988,-0.0989,-0.099,-0.0999,-0.1001,-0.1002,-0.1007,-0.1006,-0.1006,-0.1007,-0.1007,-0.1017,-0.1017,0,0,0,0,0,0,-0.0967,-0.0969,-0.0979,-0.0979,-0.0975,-0.0982,-0.0983,-0.0985,-0.0993,-0.0994,-0.099,-0.099,-0.1,-0.1001,-0.1002,-0.1006,-0.1006,-0.1007,-0.1007,-0.1017,-0.1017,-0.1017,0,0,0,0,0,0,-0.0967,-0.0968,-0.0978,-0.0975,-0.0976,-0.0982,-0.0984,-0.0985,-0.0987,-0.0994,-0.0995,-0.099,-0.1,-0.1001,-0.1005,-0.1006,-0.1007,-0.1007,-0.1016,-0.1017,-0.1017,-0.1012,0,0,0,0,0,0,-0.0967,-0.0968,-0.0968,-0.0974,-0.0976,-0.0981,-0.0984,-0.0985,-0.0988,-0.0988,-0.0995,-0.0996,-0.1,-0.1005,-0.1006,-0.1007,-0.1008,-0.1016,-0.1017,-0.1017,-0.1012,-0.1012,-0.1011,0,0,0,0,0,-0.0966,-0.0966,-0.0968,-0.0969,-0.0976,-0.0981,-0.0982,-0.0986,-0.0988,-0.0988,-0.0993,-0.0996,-0.1006,-0.1005,-0.1006,-0.1007,-0.1016,-0.1017,-0.1017,-0.1012,-0.1012,-0.1011,0,0,0,0,0,0,-0.0959,-0.0967,-0.0969,-0.0971,-0.0975,-0.0982,-0.0982,-0.0986,-0.099,-0.099,-0.0996,-0.0998,-0.1001,-0.1005,-0.1004,-0.101,-0.1012,-0.1012,-0.1008,-0.1007,-0.1007,-0.1006,-0.1008,0,0,0,0,0,-0.0958,-0.096,-0.0967,-0.0968,-0.097,-0.0976,-0.0978,-0.0981,-0.0986,-0.0988,-0.0993,-0.0998,-0.1002,-0.1005,-0.1009,-0.1012,-0.1015,-0.1014,-0.1014,-0.1013,-0.1014,-0.1017,-0.1017,-0.1017,-0.1017,-0.1017,0,0,-0.0955,-0.096,-0.0961,-0.0967,-0.097,-0.0974,-0.0977,-0.098,-0.0983,-0.0989,-0.0993,-0.0997,-0.1003,-0.1007,-0.1009,-0.101,-0.1014,-0.1013,-0.1013,-0.1013,-0.1017,-0.1017,-0.1017,-0.1017,-0.1017,-0.1017,0,0,-0.0952,-0.0955,-0.0957,-0.0961,-0.0967,-0.0971,-0.0971,-0.0978,-0.0981,-0.0985,-0.099,-0.0994,-0.1001,-0.1005,-0.1008,-0.1009,-0.1012,-0.101,-0.1009,-0.1012,-0.1012,-0.1013,-0.1014,-0.1014,-0.1011,-0.101,-0.101,0,-0.0948,-0.0952,-0.0957,-0.0961,-0.0964,-0.0969,-0.0972,-0.0975,-0.0982,-0.0985,-0.0986,-0.0996,-0.1,-0.1006,-0.1006,-0.1008,-0.101,-0.101,-0.1012,-0.1012,-0.1012,-0.1014,-0.1014,-0.101,-0.101,-0.101,-0.101,0,-0.0948,-0.0951,-0.0952,-0.0959,-0.0962,-0.0965,-0.0971,-0.0974,-0.0978,-0.0982,-0.0988,-0.0993,-0.1,-0.1001,-0.1004,-0.1008,-0.1009,-0.1011,-0.1012,-0.1012,-0.1014,-0.1014,-0.101,-0.101,-0.101,-0.101,0,0,-0.094,-0.095,-0.0951,-0.0955,-0.0962,-0.0965,-0.0969,-0.0975,-0.0978,-0.0983,-0.0987,-0.0994,-0.0996,-0.1,-0.1004,-0.1007,-0.1009,-0.1009,-0.1009,-0.101,-0.1015,-0.1014,-0.1014,-0.1011,-0.1011,-0.1011,-0.1015,0,-0.0938,-0.0945,-0.095,-0.0955,-0.0959,-0.0965,-0.0969,-0.0974,-0.0979,-0.0984,-0.0989,-0.0994,-0.0996,-0.0999,-0.1002,-0.1008,-0.101,-0.1008,-0.1016,-0.1016,-0.1015,-0.1015,-0.1013,-0.1016,-0.1015,-0.1015,-0.1015,0,-0.0937,-0.0942,-0.0948,-0.0957,-0.0958,-0.0961,-0.0968,-0.0973,-0.098,-0.0983,-0.0988,-0.0992,-0.0998,-0.0999,-0.1008,-0.1006,-0.101,-0.1013,-0.1014,-0.1015,-0.1016,-0.1017,-0.1017,-0.1018,-0.1016,-0.1016,-0.1016,0,-0.0932,-0.094,-0.0945,-0.0948,-0.0958,-0.096,-0.0965,-0.0972,-0.0976,-0.0982,-0.0985,-0.0992,-0.0996,-0.1002,-0.1008,-0.1008,-0.1017,-0.1018,-0.102,-0.102,-0.1022,-0.1022,-0.1024,-0.1023,-0.1023,-0.1023,-0.1023,0,-0.093,-0.0934,-0.0943,-0.0946,-0.0951,-0.0957,-0.0962,-0.0967,-0.0974,-0.0978,-0.0984,-0.0989,-0.0997,-0.1003,-0.1008,-0.1015,-0.1017,-0.102,-0.1022,-0.102,-0.102,-0.1023,-0.1023,-0.1024,-0.1024,-0.1024,-0.1023,0,-0.0925,-0.0932,-0.0937,-0.0947,-0.0949,-0.0952,-0.0961,-0.0964,-0.097,-0.0976,-0.0978,-0.0987,-0.0994,-0.1001,-0.1011,-0.1015,-0.1022,-0.1024,-0.102,-0.1021,-0.1023,-0.1023,-0.1027,-0.1029,-0.1027,-0.1027,-0.1027,0,-0.0924,-0.0927,-0.0937,-0.094,-0.0944,-0.095,-0.0954,-0.0962,-0.0966,-0.0975,-0.0978,-0.0986,-0.0993,-0.1005,-0.1012,-0.102,-0.1023,-0.1024,-0.1024,-0.1023,-0.1024,-0.1024,-0.1025,-0.1024,-0.1024,-0.1024,-0.1023,0,-0.0921,-0.0925,-0.093,-0.0938,-0.0943,-0.0949,-0.0955,-0.0958,-0.0967,-0.0972,-0.098,-0.0985,-0.0996,-0.1004,-0.1013,-0.1018,-0.1023,-0.1023,-0.1025,-0.1023,-0.1021,-0.1023,-0.102,-0.1023,-0.1023,-0.1023,-0.1023,-0.1023,-0.0918,-0.0922,-0.093,-0.0937,-0.0942,-0.0949,-0.0953,-0.0959,-0.0966,-0.0975,-0.0979,-0.0987,-0.0996,-0.1009,-0.1014,-0.1022,-0.1023,-0.1024,-0.1024,-0.1025,-0.1025,-0.102,-0.1023,-0.1023,-0.1023,-0.1023,-0.1023,0,-0.0917,-0.0923,-0.0929,-0.0938,-0.0944,-0.0947,-0.0955,-0.096,-0.0967,-0.0974,-0.0981,-0.0991,-0.0999,-0.1008,-0.1017,-0.1022,-0.1024,-0.1024,-0.1024,-0.1025,-0.1023,-0.1022,-0.1022,-0.1022,-0.1022,-0.1022,-0.1022,-0.1022,-0.0917,-0.0923,-0.0928,-0.0938,-0.0944,-0.0952,-0.0956,-0.0962,-0.0969,-0.0979,-0.0986,-0.0992,-0.1001,-0.1011,-0.1019,-0.1022,-0.1025,-0.1025,-0.1028,-0.1025,-0.1025,-0.1025,-0.1024,-0.1025,-0.1025,-0.103,-0.103,-0.103]},{"header":{"parameterUnit":"m.s-1","parameterCategory":1,"la1":30.2991,"la2":30.254,"lo1":-89.0895,"lo2":-89.0444,"dy":0.0017,"dx":0.0017,"nx":28,"ny":28,"refTime":"2024-05-22T09:00:00:Z","depth":0,"parameterNumber":3,"parameterNumberName":"V-component_of_WINDS"},"data":[0,0,0,0,0,0,0,0,0,0,0,0,0,0,0,0,0,0,0,0,0,0,0,0,0,0,0,0,0,0,0,0,0,0,0,0,0,0,0,0,0,0,0,0,0,0,0,0,0,0,0,0,0,0,0,0,0,0,5.1589,5.159,0,5.1649,5.1649,5.165,5.1574,5.1571,5.1569,5.1566,5.1623,5.1627,5.1631,0,0,0,0,0,0,0,0,0,0,0,0,0,5.1405,5.1409,5.1589,5.159,5.159,5.1648,5.1649,5.165,5.1574,5.1571,5.1568,5.1565,5.1621,5.1626,5.1631,0,0,0,0,0,0,0,0,0,0,0,0,0,5.1477,5.141,5.1589,5.156,5.1558,5.1648,5.1649,5.165,5.1575,5.1571,5.1567,5.1563,5.162,5.1626,5.1632,5.1752,0,0,5.165,5.1653,0,0,0,0,0,0,0,0,5.1473,5.1483,5.1563,5.1562,5.156,5.16,5.1605,5.1684,5.1576,5.1569,5.1566,5.1561,5.1618,5.1624,5.1644,5.1755,5.1757,5.1651,5.1655,5.1657,5.1659,0,0,0,0,0,0,0,5.1468,5.148,5.1612,5.1565,5.1563,5.1542,5.1548,5.162,5.1616,5.1569,5.1564,5.1572,5.1616,5.1638,5.1645,5.1758,5.1651,5.1656,5.166,5.1662,5.1969,5.1973,0,0,0,0,0,0,5.1467,5.1477,5.161,5.1614,5.1505,5.1549,5.1555,5.1591,5.1615,5.1614,5.1575,5.1568,5.163,5.1638,5.1647,5.1788,5.1657,5.1663,5.1666,5.1964,5.197,5.1975,0,0,0,0,0,0,5.1463,5.148,5.1608,5.1544,5.1559,5.1557,5.1597,5.1594,5.1616,5.162,5.1618,5.1599,5.1627,5.1638,5.1726,5.1789,5.1666,5.1671,5.1959,5.1966,5.1972,5.2073,0,0,0,0,0,0,5.1458,5.1479,5.1526,5.1546,5.1563,5.1689,5.1601,5.1599,5.1628,5.1619,5.1641,5.1641,5.1625,5.1718,5.1733,5.1795,5.1676,5.1953,5.1962,5.197,5.2064,5.2082,5.2098,0,0,0,0,0,5.1452,5.1551,5.1528,5.1545,5.1622,5.1692,5.1702,5.1682,5.1633,5.1679,5.1681,5.164,5.178,5.1727,5.1743,5.1809,5.1949,5.196,5.1969,5.2057,5.2079,5.2098,0,0,0,0,0,0,5.1537,5.1553,5.1528,5.1637,5.1664,5.168,5.1737,5.1707,5.1747,5.1737,5.1709,5.1715,5.1809,5.1818,5.1759,5.1926,5.1856,5.187,5.1917,5.1938,5.1955,5.1951,5.1681,0,0,0,0,0,5.1568,5.1626,5.1637,5.1731,5.1746,5.174,5.177,5.1753,5.1779,5.1789,5.1798,5.1824,5.1873,5.1906,5.1952,5.2065,5.2068,5.2118,5.2135,5.2149,5.2161,5.222,5.2242,5.2008,5.2008,5.2007,0,0,5.1634,5.165,5.1688,5.1749,5.1768,5.1827,5.175,5.1815,5.1858,5.1799,5.1883,5.189,5.1917,5.2018,5.2063,5.2028,5.2226,5.2162,5.2173,5.2177,5.2233,5.2255,5.2275,5.2015,5.2013,5.2012,0,0,5.1783,5.1801,5.1882,5.1903,5.1933,5.1928,5.1947,5.1968,5.197,5.2055,5.2011,5.2061,5.2147,5.2168,5.219,5.2347,5.231,5.2362,5.245,5.2509,5.2527,5.2543,5.2598,5.2618,5.2374,5.2374,5.2375,0,5.1859,5.1948,5.1927,5.1996,5.2023,5.1974,5.2054,5.2075,5.2118,5.2137,5.2098,5.2205,5.222,5.2324,5.2363,5.2383,5.2403,5.2359,5.2526,5.2542,5.2557,5.2609,5.263,5.238,5.238,5.2379,5.2379,0,5.204,5.2103,5.2164,5.2208,5.2243,5.2317,5.2306,5.2343,5.2322,5.2321,5.2407,5.2423,5.247,5.2494,5.2474,5.2596,5.2573,5.2531,5.246,5.2586,5.2634,5.2654,5.2389,5.2387,5.2385,5.2384,0,0,5.2244,5.2276,5.2299,5.2318,5.2348,5.2394,5.2466,5.2514,5.2546,5.2577,5.2635,5.2709,5.267,5.2695,5.2677,5.2728,5.285,5.2679,5.2679,5.2709,5.2984,5.3015,5.3038,5.2826,5.283,5.2833,5.2981,0,5.2392,5.2518,5.2501,5.2621,5.2677,5.263,5.2692,5.2716,5.2717,5.2763,5.2763,5.2816,5.2761,5.2775,5.2824,5.2825,5.2904,5.2814,5.2878,5.2881,5.2873,5.3064,5.3097,5.3236,5.3,5.3003,5.3005,0,5.2582,5.2622,5.2748,5.2768,5.2791,5.2848,5.289,5.2935,5.2961,5.2957,5.2986,5.2958,5.3028,5.2957,5.3052,5.2991,5.3016,5.302,5.3025,5.303,5.295,5.3072,5.328,5.33,5.3035,5.3033,5.303,0,5.2717,5.2802,5.2888,5.2906,5.2932,5.2972,5.2985,5.3006,5.3036,5.3073,5.3091,5.3135,5.3159,5.3193,5.3177,5.3127,5.3275,5.3202,5.3272,5.3273,5.3305,5.3303,5.3518,5.3323,5.3323,5.3322,5.3322,0,5.2884,5.2962,5.2948,5.3001,5.3087,5.3066,5.3152,5.3158,5.3178,5.323,5.3192,5.3241,5.3219,5.3266,5.3254,5.3334,5.3345,5.3343,5.3339,5.3346,5.3346,5.3361,5.3351,5.3328,5.3327,5.3326,5.3325,0,5.3048,5.3042,5.3133,5.3151,5.3157,5.322,5.3234,5.3283,5.328,5.3347,5.3361,5.3357,5.3411,5.3399,5.3457,5.3449,5.3549,5.3533,5.3541,5.3537,5.3607,5.36,5.3839,5.3869,5.3655,5.3658,5.3659,0,5.3155,5.3214,5.3239,5.3272,5.3288,5.3341,5.3372,5.3353,5.3386,5.342,5.3464,5.3515,5.3554,5.3642,5.3643,5.3687,5.3671,5.3752,5.3677,5.3683,5.3671,5.3668,5.3673,5.3766,5.3769,5.3771,5.3772,0,5.3344,5.3338,5.3385,5.3431,5.3468,5.3503,5.3534,5.3562,5.3546,5.3585,5.364,5.3671,5.3731,5.3781,5.3822,5.3832,5.38,5.3796,5.3814,5.3822,5.3824,5.3823,5.358,5.379,5.3789,5.3787,5.3786,5.3786,5.3482,5.3532,5.3558,5.3611,5.3632,5.3662,5.3708,5.3712,5.3759,5.3807,5.3793,5.3855,5.3878,5.393,5.3946,5.3993,5.3962,5.3989,5.3996,5.4003,5.4011,5.3817,5.4,5.4,5.3999,5.3999,5.3999,0,5.3668,5.3683,5.3731,5.3776,5.3818,5.3785,5.3817,5.3853,5.3909,5.3934,5.3974,5.4037,5.4085,5.4091,5.4136,5.4173,5.4159,5.4185,5.4181,5.4184,5.4036,5.4015,5.4196,5.4196,5.4195,5.4195,5.4195,5.4195,5.377,5.3854,5.3851,5.3944,5.3957,5.4019,5.404,5.4067,5.4087,5.4159,5.42,5.4203,5.422,5.4266,5.4309,5.4309,5.4327,5.4359,5.4353,5.4214,5.4195,5.4176,5.4156,5.4363,5.4363,5.4497,5.4498,5.4499]}]]